Regional Weather Roundup
Issued by NWS Nashville, TN

Home | Current Version | Previous Version | Text Only | Print | Product List | Glossary On
Versions: 1 2 3 4 5 6 7 8 9 10 11 12 13 14 15 16 17 18 19 20 21 22 23 24 25 26 27 28 29 30 31 32 33 34 35 36 37 38 39 40 41 42 43 44 45 46 47 48 49 50
000
ASUS44 KOHX 201610
RWROHX
MIDDLE TENNESSEE HOURLY WEATHER ROUNDUP
NATIONAL WEATHER SERVICE NASHVILLE TN
1100 AM CDT SUN APR 20 2014

NOTE: "FAIR" INDICATES FEW OR NO CLOUDS BELOW 12,000 FEET WITH
NO SIGNIFICANT WEATHER AND/OR OBSTRUCTIONS TO VISIBILITY.

* THESE REPORTS ARE NOT UNDER NWS QUALITY CONTROL AND MAY NOT
  REPORT WEATHER SUCH AS PRECIPITATION AND FOG.


TNZ005>011-023>034-057-059-062>066-078-080-201700
...NORTHERN MIDDLE TENNESSEE...

CITY           SKY/WX    TMP DP  RH WIND       PRES   REMARKS
BAXTER*          N/A     75  52  43 CALM        N/A
BRENTWOOD*       N/A     75  50  41 W3          N/A
CASTALIAN SPRG   N/A     72  48  43 W3          N/A
CLARKSVILLE    SUNNY     71  44  37 W5        30.23S
COLUMBIA       SUNNY     72  55  56 VRB5      30.23S
CROSSVILLE     SUNNY     67  39  35 NE5       30.26F
GALLATIN         N/A     68  47  46 S7        30.24F
DICKSON        SUNNY     72  41  33 W8        30.23S
FAIRFIELD GLAD   N/A     68  45  42 E3          N/A
GOODLETTSVILLE   N/A     66  50  55 CALM        N/A
JOELTON*         N/A     72  46  40 CALM        N/A
LAFAYETTE*       N/A     70  46  43 SW5         N/A
LIVINGSTON     SUNNY     70  38  31 CALM      30.25S
MONTEREY         N/A     70  41  35 CALM        N/A
MOUNT JULIET*    N/A     70  50  49 CALM        N/A
NASHVILLE      MOSUNNY   73  43  33 S3        30.23F
OLD HICKORY*     N/A     70  54  56 MISG        N/A
PEGRAM*          N/A    N/A N/A N/A W2          N/A
PORTLAND       SUNNY     70  45  40 W6        30.21F
SMYRNA         SUNNY     72  46  39 CALM      30.24F
SPARTA         SUNNY     72  45  37 W5        30.25S
SPRINGFIELD*     N/A     72  54  53 MISG        N/A
WHITE BLUFF*     N/A     77  46  33 NW2         N/A
$$
TNZ056-058-060-061-075>077-079-093>097-201700
...SOUTHERN MIDDLE TENNESSEE...

CITY           SKY/WX    TMP DP  RH WIND       PRES   REMARKS
BELLEVUE*        N/A     73  50  43 CALM        N/A
CULLEOKA*        N/A     73  45  35 SW1         N/A
EAGLEVILLE*      N/A    N/A N/A N/A CALM        N/A
FAYETTEVILLE   SUNNY     65  47  52 W6        30.25F
LEWISBURG      SUNNY     71  50  47 SW3       30.23F
MANCHESTER*      N/A     68  52  56 CALM        N/A
MCMINNVILLE      N/A     69  49  48 W6        30.25F
MOUNT PLEASANT   N/A     73  54  49 S3          N/A
MURFREESBORO   SUNNY     71  46  40 SW3       30.23F
SHELBYVILLE    SUNNY     70  52  52 CALM      30.25F
SPRING HILL*     N/A     72  52  49 CALM        N/A
TULLAHOMA      SUNNY     68  46  45 CALM      30.25F
WINCHESTER     SUNNY     68  48  49 CALM      30.25F
$$


...KEY TO REMARKS...
VSB - VISIBILITY IN MILES
WCI - WIND CHILL INDEX
HX  - HEAT INDEX




USA.gov is the U.S. government's official web portal to all federal, state and local government web resources and services.